CYNC

Wemindji Airport

ICAO Code CYNC
IATA Code YNC
Name Wemindji Airport
Location Wemindji, Quebec, CA
Elevation 66 Feet / 20.1 Meters
Latitude 53.01055556
Longitude -78.83111111
METAR CYNC 232000Z 23009KT 170V240 15SM FEW045 FEW300 23/10 A3005 RMK CU1CI1 LAST STFD OBS/NEXT 031300UTC SLP178 DENSITY ALT 900FT
Extra information Display Charts and CFS
Display NOTAMS
Runway Length Width Surface Elevation
10 3511 ft 100 ft GRAVEL 30 ft
28 3511 ft 100 ft GRAVEL 66 ft